Back to catalog

HO-113

XW-3

AliveAmateur RadioSSO
NORAD 50466·PAYLOAD·🇨🇳 China

Launched Dec 26, 2021 from Taiyuan Satellite Launch Center

Loading…

Next Passes (next 24 hours)

TLE

FreshSource: AMSAT

Epoch: Sep 14, 2026, 14:28 UTC

1 50466U 21131B   26257.60313410  .00000385  00000-0  13242-3 0  9990
2 50466  98.4979 349.5066 0004060 173.2704 186.8540 14.41424867247990

Track HO-113 in real time with AllMySat

Download on the App Store